Location: Ehrke Reservoir
(40.0279°N, 99.6641°W)
Time: 09:35:15
(UTC+00:00)

COSMO-SKYMED 1 - Pass Details

Date: 20 January 2020
Orbit: 621 x 623 km, 97.9° (Epoch: 17 February)

Event Time Altitude Azimuth Distance (km) Brightness Sun altitude
Rises 11:39:33 0° 159° (SSE) 2,888 6.3 -26.0°
Reaches altitude 10° 11:41:44 10° 157° (SSE) 1,986 5.5 -25.6°
Maximum altitude 11:46:01 66° 75° (ENE) 681 2.8 -24.7°
Enters shadow 11:47:33 38° 7° (N) 954 3.4 -24.5°
